Regional Weather Roundup
Issued by NWS Upton, NY

Current Version | Previous Version | Graphics & Text | Print | Product List | Glossary Off
Versions: 1 2 3 4 5 6 7 8 9 10 11 12 13 14 15 16 17 18 19 20 21 22 23 24 25 26 27 28 29 30 31 32 33 34 35 36 37 38 39 40 41 42 43 44 45 46 47 48 49

000
ASUS41 KOKX 290307
RWROKX

REGIONAL WEATHER ROUNDUP
NATIONAL WEATHER SERVICE NEW YORK NY
1100 PM EDT SAT MAR 28 2015

NOTE: "FAIR" INDICATES FEW OR NO CLOUDS BELOW 12,000 FEET WITH NO
SIGNIFICANT WEATHER AND/OR OBSTRUCTIONS TO VISIBILITY.

NYZ071-072-176-178-NJZ106-104-290400-
NEW YORK CITY METRO AREA


CITY           SKY/WX    TMP DP  RH WIND       PRES   REMARKS
CENTRAL PARK   CLOUDY    29  14  53 N7        30.12R WCI  22
LAGUARDIA APRT FLURRIES  30  17  58 NW16      30.10R WCI  19
KENNEDY INTL   CLOUDY    31  17  56 NW16G29   30.10R WCI  20
NEWARK/LIBERTY MOCLDY    30  13  49 N17G26    30.11R WCI  18
BRNX BOT. GARD   N/A    N/A N/A N/A W12       30.10R
TETERBORO      CLOUDY    29  15  56 NW14      30.10R WCI  18
$$

NYZ177-179-078>081-290400-
LONG ISLAND NEW YORK

CITY           SKY/WX    TMP DP  RH WIND       PRES   REMARKS
FARMINGDALE    LGT SNOW  28  24  85 NW9       30.08R FOG     WCI  19
ISLIP          LGT SNOW  29  25  85 NW21      30.04R VSB 1   WCI  16
SHIRLEY        LGT SNOW  29  26  89 NW14G21   30.05R VSB 1   WCI  18
WESTHAMPTON    LGT SNOW  29  26  89 NW13      30.05R VSB 3/4 WCI  19
MONTAUK POINT  NOT AVBL
$$

NYZ052-065-067-290400-
HUDSON VALLEY

CITY           SKY/WX    TMP DP  RH WIND       PRES   REMARKS
WHITE PLAINS   MOCLDY    26  19  74 NW16      30.06R HAZE    WCI  14
NEWBURGH       NOT AVBL
MONTGOMERY     CLOUDY    26  12  55 NW10G20   30.10R WCI  16
POUGHKEEPSIE   CLOUDY    28  14  55 NW9       30.11R WCI  19
ALBANY         CLOUDY    26  10  50 NW17      30.14R WCI  13
$$

NJZ001-105-106-008-010-013-015-019>022-104-290400-
NEW JERSEY

CITY           SKY/WX    TMP DP  RH WIND       PRES   REMARKS
NEWARK/LIBERTY MOCLDY    30  13  49 N17G26    30.11R WCI  18
TETERBORO      CLOUDY    29  15  56 NW14      30.10R WCI  18
CALDWELL       CLOUDY    27  14  58 N9G23     30.12R WCI  18
MORRISTOWN     CLOUDY    30  14  51 NW8G16    30.13R WCI  23
SOMERVILLE     CLOUDY    27  10  49 NW13      30.13R WCI  16
SUSSEX         CLOUDY    25  11  55 VRB5      30.13R WCI  19
ANDOVER          N/A     23  10  57 N8        30.12R WCI  14
TRENTON        CLOUDY    27   7  42 N10G18    30.13R WCI  17
MILLVILLE      PTCLDY    29  19  66 NW10      30.15R WCI  20
ATLANTIC CITY  CLEAR     27  14  58 NW10      30.13R WCI  17
WRIGHTSTOWN    FAIR      28   9  46 NW16      30.11R WCI  16
TOMS RIVER     CLOUDY    28  10  47 NW16G23   30.12R WCI  17
BELMAR         MOCLDY    28   7  40 NW15G22   30.10R WCI  17
$$

PAZ047>061-062-071-290400-
EASTERN PENNSYLVANIA

CITY           SKY/WX    TMP DP  RH WIND       PRES   REMARKS
PHILADELPHIA   PTCLDY    30   6  36 NW22G28   30.17R WCI  17
ALLENTOWN      CLOUDY    25   7  46 NW21G29   30.16R WCI  11
SCRANTON       CLOUDY    23   4  44 N9G20     30.15R WCI  13
$$

CTZ002-004>006-009-010-012-RIZ004-006-007-MAZ004-011-015-290400-
SOUTHERN NEW ENGLAND
 IN CT

CITY           SKY/WX    TMP DP  RH WIND       PRES   REMARKS
BRADLEY INTL   CLOUDY    30  17  58 N12       30.04R WCI  20
HARTFORD       CLOUDY    30  20  66 N9G18     30.06R WCI  22
DANBURY        CLOUDY    26  15  63 NW13G21   30.08R WCI  15
WTRBRY/OXFORD  CLOUDY    25  16  68 NW10      30.04R WCI  15
BRIDGEPORT     LGT SNOW  29  24  82 NW13      30.06R WCI  19
MERIDEN        LGT SNOW  28  25  88 NW8       30.05R FOG     WCI  20
NEW HAVEN      LGT SNOW  29  25  85 NW10      30.04R FOG     WCI  20
CHESTER        FLURRIES  30  27  86 N14G20    30.01R WCI  20
GROTON         LGT SNOW  31  27  85 N16       30.02R FOG     WCI  20
WILLIMANTIC    LGT SNOW  29  25  85 N8        30.03R FOG     WCI  21

 IN RI

CITY           SKY/WX    TMP DP  RH WIND       PRES   REMARKS
PROVIDENCE     LGT SNOW  32  30  92 N8        30.01R VSB 1   WCI  25
BLOCK ISLAND   CLOUDY    32  30  93 NE8       29.99R WCI  25
WESTERLY       LGT SNOW  31  30  96 NW10G20   30.02R VSB 3/4 WCI  22

 IN MA

CITY           SKY/WX    TMP DP  RH WIND       PRES   REMARKS
BOSTON         CLOUDY    33  25  72 NW15      30.00R WCI  23
WORCESTER      FLURRIES  26  19  74 NW13G21   29.97R WCI  15
WESTFIELD      CLOUDY    29  15  56 N16       30.05R WCI  17
PROVINCETOWN   PTCLDY    36  25  64 N7        29.98R WCI  30
NANTUCKET      CLOUDY    34  30  85 NE7       29.97R WCI  28
$$

ANZ330-335-338-340-345-350-353-355-290400-
COASTAL MARINE OBSERVATIONS


STATION/POSITION TIME  SKY/WX   TEMP    WIND        PRES    VSBY  WAVE
                                AIR SEA DIR/SP/G                  HT/PER
                 (UTC)          (F)     (DEG/KT/KT) (MB)    (MI)  (FT/S)
NY HARB ENTRANCE 0250            32 38  320/ 17/ 21 1018.1          4/10
4S FIRE IS       0203               36                N/A           3/10
20S FIRE ISLAND  0150               38              1017.1          5/11
23SW MTP         0250                                 N/A           5/11
HUDSON CANYON    NOT AVBL
EXECUTION ROCKS  NOT AVBL
WESTERN LI SOUND NOT AVBL
CENTRAL LI SOUND NOT AVBL
EASTERN LI SOUND NOT AVBL
ROBBINS REEF     0200            31     330/ 17/ 21 1017.4
$$


>>>>>>>>>>>>>>>>>>>>>>>>>>>> KEY <<<<<<<<<<<<<<<<<<<<<<<<<<<
>                                                          <
>     SKY/WX - SKY CONDITION/PRESENT WEATHER               <
>     TMP    - TEMPERATURE IN FAHRENHEIT                   <
>     DP     - DEWPOINT IN FAHRENHEIT                      <
>     RH     - RELATIVE HUMIDITY IN PERCENT                <
>     WIND   - DIRECTION AND SPEED IN MPH                  <
>     PRES   - MEAN SEA LEVEL PRESSURE IN INCHES OF HG     <
>     WCI    - WIND CHILL INDEX                            <
>     VSB    - VISIBILITY IN MILES                         <
>     HX     - HEAT INDEX                                  <
>     TC     - TEMPERATURE IN CELSIUS                      <
>     VRB    - VARIABLE WIND DIRECTION                     <
>                                                          <
>>>>>>>>>>>>>>>>>>>>>>>>>>>> KEY <<<<<<<<<<<<<<<<<<<<<<<<<<<





USA.gov is the U.S. government's official web portal to all federal, state and local government web resources and services.